الصفحة الرئيسية
METAR-TAF:

METAR-TAF

مطار :

Kit Carson County Airport

Burlington, كولورادو, الولايات المتحدة

دائرة عرض: 39-14-32N, خط طول: 102-16-58W, ارتفاع: 1285 متر

مراقبة الطقس الحالي

تاريخ ووقت الإصدار 12 دقيقة قبل الساعة 14:53UTC
ريح 9 عقدة من الغرب/الشمال الغربي
درجة الحرارة -3°درجة مئوية
الرطوبة 50%
ضغط 1026 hPa
الرؤية: 16.1 كم
سماء صافية

METAR: KITR 141453Z AUTO 30009KT 10SM CLR M03/M12 A3029 RMK AO2 SLP297 T10331117 53015

زمن: 08:05 (15:05 UTC)


TAF: مفقودة

أرصاد الطقس والتوقعات من أكثر من 4000 مطار (تقارير الطقس للمطار METAR والتنبؤ بالطقس بالمطارTAF).

المحطات المتاحة هي النقط الصفراء والحمراء على الخريطة.

حرك المؤشر فوق النقطة لمعرفة اسم المحطة.

ثم انقر لمعرفة أرصاد وتوقعات الطقس.

لتغيير الخارطة: اضغط على الأزرار الخضراء مع رمز الصليب الأسود للتكبير. على الزر الأخضر مع شرطة للتصغير، أو على الأسهم الخضراء للخرائط المجاورة.


METAR-TAF: